SHIJIAN-29A (SJ-29A)

Last updated on Mon Sep 07 2026 00:03:03 GMT+0000 (Coordinated Universal Time)

1 67302U 25315A 26249.77279133 -.00000087 00000+0 00000+0 0 9990 2 67302 3.5986 93.1277 0006065 77.5566 166.8259 1.00272994 2433
UTC large
Height (km)
Speed (km/s)
/
Latitude / Longitude
Inclination (degrees)
Orbital Period (minutes)
Azimuth
Elevation
Range (km)
Doppler Factor

Next 0 passes for location: London (51.5072 / 0.1276)

No passes found over London.
SHIJIAN-29A (SJ-29A)